Change the Weather History Date:

Friday, February 14, 2014

  Actual Average Record
Temperature  
Mean Temperature 38 °F -  
Max Temperature 42 °F 45 °F 55 °F (1998)
Min Temperature 35 °F 34 °F 24 °F (2003)
Degree Days  
Heating Degree Days 26    
Moisture  
Dew Point 37 °F    
Average Humidity 87    
Maximum Humidity 100    
Minimum Humidity 71    
Precipitation  
Precipitation 0.35 in - - ()
Sea Level Pressure  
Sea Level Pressure 28.98 in    
Wind  
Wind Speed 13 mph ()    
Max Wind Speed 31 mph    
Max Gust Speed 44 mph    
Visibility 8.9 miles    
Events Rain    
Averages and records for this station are not official NWS values.
T = Trace of Precipitation, MM = Missing Value Source: Averaged Metar Reports

Daily Weather History Graph

Daily Weather History Graph

Search for Another Location

Airport or City:

Trip Planner

Search our weather history database for the weather conditions in past years. The results will help you decide how hot, cold, wet, or windy it might be!

Date:

Astronomy

Feb. 14, 2014 Rise Set
Actual Time 7:40 AM GMT 5:11 PM GMT
Civil Twilight 7:01 AM GMT 5:51 PM GMT
Nautical Twilight 6:17 AM GMT 6:35 PM GMT
Astronomical Twilight 5:33 AM GMT 7:18 PM GMT
Moon 5:09 PM GMT (2/14) 6:55 AM GMT (2/14)
Length of Visible Light 10h 50m
Length of Day
9h 31m
Full, 100% of the Moon is Illuminated
Feb 14
Full
Feb 14
Full
Feb 22
Last Quarter
Mar 1
New
Mar 8
First Quarter

Hourly Weather History & Observations

Time (GMT) Temp. Windchill Dew Point Humidity Pressure Visibility Wind Dir Wind Speed Gust Speed Precip Events Conditions
12:00 AM 41 °F - 36 °F 74% 29.03 in 19 mi WSW 21.9 mph - -   Partly Cloudy
12:50 AM 41.0 °F 31.9 °F 35.6 °F 81% 29.06 in - WSW 19.6 mph - N/A   Clear
1:00 AM 41 °F - 36 °F 77% 29.08 in 19 mi WSW 19.6 mph - -   Partly Cloudy
1:50 AM 39.2 °F 29.3 °F 35.6 °F 87% 29.09 in - WSW 20.7 mph - N/A   Clear
2:00 AM 40 °F - 36 °F 80% 29.11 in 19 mi WSW 20.7 mph - -   Scattered Clouds
2:50 AM 39.2 °F 32.0 °F 35.6 °F 87% 29.12 in - West 11.5 mph - N/A   Clear
3:00 AM 39 °F - 36 °F 85% 29.13 in 19 mi West 11.5 mph - -   Scattered Clouds
3:50 AM 39.2 °F 33.0 °F 35.6 °F 87% 29.12 in - West 9.2 mph - N/A   Clear
4:00 AM 40 °F - 36 °F 81% 29.14 in 19 mi West 9.2 mph - -   Scattered Clouds
4:50 AM 35.6 °F 28.0 °F 33.8 °F 93% 29.15 in - WSW 10.4 mph - N/A   Clear
5:00 AM 36 °F - 35 °F 92% 29.16 in 19 mi WSW 10.4 mph - -   Scattered Clouds
5:50 AM 37.4 °F 29.3 °F 35.6 °F 93% 29.18 in - WSW 12.7 mph - N/A   Clear
6:00 AM 37 °F - 35 °F 92% 29.19 in 19 mi WSW 12.7 mph - -   Clear
6:50 AM 35.6 °F 29.9 °F 33.8 °F 93% 29.21 in 6.2 mi WSW 6.9 mph - N/A   Mostly Cloudy
7:00 AM 36 °F - 34 °F 89% 29.21 in 25 mi WSW 6.9 mph - -   Scattered Clouds
7:26 AM 37.4 °F 30.8 °F 35.6 °F 93% 29.21 in 6.2 mi SW 9.2 mph - N/A   Mostly Cloudy
7:50 AM 39.2 °F 31.2 °F 35.6 °F 87% 29.21 in 6.2 mi WSW 13.8 mph - N/A   Mostly Cloudy
8:00 AM 39 °F - 36 °F 85% 29.22 in 16 mi WSW 13.8 mph - -   Scattered Clouds
8:50 AM 37.4 °F - 35.6 °F 93% 29.21 in 6.2 mi West 1.2 mph - N/A   Mostly Cloudy
9:00 AM 38 °F - 36 °F 87% 29.22 in 12 mi West 1.2 mph - -   Scattered Clouds
9:50 AM 39.2 °F - 37.4 °F 93% 29.21 in 6.2 mi ESE 2.3 mph - N/A   Overcast
10:00 AM 40 °F - 37 °F 83% 29.23 in 12 mi ESE 2.3 mph - -   Overcast
10:50 AM 41.0 °F 36.4 °F 37.4 °F 87% 29.21 in 6.2 mi SSW 6.9 mph - N/A   Overcast
11:00 AM 41 °F - 37 °F 81% 29.21 in 12 mi SSW 6.9 mph - -   Overcast
11:50 AM 42.8 °F 41.1 °F 37.4 °F 81% 29.18 in 6.2 mi ESE 3.5 mph - N/A   Mostly Cloudy
12:00 PM 42 °F - 37 °F 77% 29.18 in 16 mi ESE 3.5 mph - -   Scattered Clouds
12:50 PM 42.8 °F 38.0 °F 37.4 °F 81% 29.12 in 6.2 mi East 8.1 mph - N/A   Mostly Cloudy
1:00 PM 42 °F - 38 °F 80% 29.14 in 22 mi East 8.1 mph - -   Partly Cloudy
1:50 PM 42.8 °F 35.4 °F 37.4 °F 81% 29.06 in 6.2 mi ESE 15.0 mph - N/A   Overcast
2:00 PM 42 °F - 38 °F 80% 29.08 in 19 mi ESE 15.0 mph - -   Overcast
2:50 PM 41.0 °F 32.2 °F 35.6 °F 81% 29.00 in 6.2 mi ESE 18.4 mph - N/A   Overcast
3:00 PM 42 °F - 36 °F 71% 29.03 in 16 mi ESE 18.4 mph - -   Overcast
3:09 PM 41.0 °F 31.9 °F 37.4 °F 87% 28.97 in 6.2 mi ESE 19.6 mph - N/A   Overcast
3:50 PM 41.0 °F 31.4 °F 37.4 °F 87% 28.91 in 6.2 mi ESE 21.9 mph - N/A   Overcast
4:00 PM 42 °F - 36 °F 74% 28.93 in 10 mi ESE 21.9 mph - -   Overcast
4:15 PM 41.0 °F 30.9 °F 35.6 °F 81% 28.91 in 3.7 mi ESE 24.2 mph - N/A Rain Rain
4:50 PM 39.2 °F 27.8 °F 35.6 °F 87% 28.88 in 2.8 mi ESE 27.6 mph 43.7 mph N/A Rain Rain
5:00 PM 39 °F - 36 °F 83% 28.89 in 3 mi ESE 27.6 mph - - Rain Rain
5:50 PM 37.4 °F 24.8 °F 35.6 °F 93% 28.80 in 2.8 mi ESE 31.1 mph - N/A Rain Rain
6:00 PM 36 °F - 35 °F 93% 28.82 in 3 mi ESE 31.1 mph - - Rain Rain
6:50 PM 37.4 °F 25.4 °F 35.6 °F 93% 28.71 in 3.7 mi ESE 27.6 mph - N/A Rain Rain
7:00 PM 37 °F - 35 °F 91% 28.73 in 4 mi ESE 27.6 mph - - Rain Rain
7:50 PM 39.2 °F 28.7 °F 37.4 °F 93% 28.62 in 4.3 mi East 23.0 mph - N/A Rain Rain
8:00 PM 38 °F - 37 °F 93% 28.64 in 3 mi East 23.0 mph - - Rain Rain
8:50 PM 41.0 °F 34.7 °F 41.0 °F 100% 28.56 in 3.1 mi ESE 10.4 mph - N/A Rain Light Rain
9:00 PM 41 °F - 40 °F 96% 28.56 in 3 mi ESE 10.4 mph - - Rain Light Rain
9:50 PM 41.0 °F 37.1 °F 39.2 °F 93% 28.50 in 6.2 mi ENE 5.8 mph - N/A Rain Light Rain
10:00 PM 41 °F - 40 °F 94% 28.51 in 7 mi ENE 5.8 mph - - Rain Light Rain
10:50 PM 41.0 °F 37.1 °F 41.0 °F 100% 28.47 in 3.7 mi NE 5.8 mph - N/A Rain Light Rain
11:00 PM 41 °F - 40 °F 96% 28.47 in 4 mi NE 5.8 mph - - Rain Light Rain
11:50 PM 41.0 °F 38.0 °F 41.0 °F 100% 28.44 in 3.1 mi NE 4.6 mph - N/A Rain Light Rain